Flag for U.S.A. Weather past 2 weeks in Denver, Colorado, U.S.A.

Now
52 °F

Cloudy.


Feels Like: 52 °F
Forecast: 46 / 61 °F
Wind: No wind

Location: Buckley Air Force Base

Current Time: May 23, 2015 at 10:47:02 AM

Latest Report: May 23, 2015 at 9:58 AM


Visibility: 10 mi

Pressure: 29.93 "Hg

Humidity: 84%

Dew point: 47 °F

Location of DenverLocation

Historic Weather in Denver — Graph

°F

Denver temperature yesterday

Maximum temperature yesterday: 59 °F (at 3:58 PM)
Minimum temperature yesterday: 45 °F (at 3:58 AM)
Average temperature yesterday: 50 °F

Past Weeks' High & Low Weather Summary

 TemperatureHumidityPressure
High72 °F (May 14, 2:58 PM)100% (May 8, 8:58 PM)30.31 "Hg (May 8, 8:58 PM)
Low26 °F (May 10, 1:58 AM)22% (May 14, 1:58 PM)29.54 "Hg (May 15, 3:58 PM)
Average48 °F79%29.94 "Hg
* Reported May 8 9:58 AM — May 23 9:58 AM, Denver, Weather by CustomWeather, © 2015

Note: Actual official high and low records may vary slightly from our data, if they occured in-between our weather recording intervals... More about our weather records

Advertising

Denver weather history for previous 24 hours

 ConditionsComfort  
Time TempWeatherWind HumidityBarometerVisibility
9:58 AM
Sat, May 23
52 °FCloudy.No wind84%29.93 "Hg10 mi
8:58 AM51 °FCloudy.2 mph85%29.93 "Hg10 mi
7:58 AM49 °FMore clouds than sun.1 mph87%29.93 "Hg7 mi
6:58 AM48 °FBroken clouds.1 mph95%29.95 "Hg7 mi
5:58 AM46 °FPassing clouds.No wind99%29.92 "Hg10 mi
4:58 AM45 °FPassing clouds.2 mph100%29.91 "Hg10 mi
3:58 AM45 °FPartly cloudy.2 mph100%29.91 "Hg7 mi
2:58 AM44 °FOvercast.2 mph100%29.93 "Hg10 mi
1:58 AM46 °FPartly cloudy.No wind99%29.94 "Hg10 mi
12:58 AM47 °FMostly cloudy.2 mph100%29.96 "Hg10 mi
11:58 PM
Fri, May 22
47 °FPassing clouds.1 mph100%29.97 "Hg10 mi
10:58 PM46 °FPartly cloudy.2 mph100%29.97 "Hg10 mi
9:58 PM48 °FLight rain. Mostly cloudy.No wind100%29.98 "Hg10 mi
8:58 PM48 °FLight rain. Partly sunny.7 mph99%29.94 "Hg10 mi
7:58 PM49 °FThundershowers. Partly sunny.7 mph98%29.93 "Hg9 mi
6:58 PM51 °FLight rain. Partly sunny.10 mph94%29.89 "Hg10 mi
5:58 PM56 °FThundershowers. Broken clouds.13 mph71%29.89 "Hg10 mi
4:58 PM56 °FThundershowers. Partly sunny.12 mph68%29.88 "Hg10 mi
3:58 PM59 °FPartly sunny.8 mph63%29.86 "Hg10 mi
2:58 PM56 °FPartly sunny.9 mph67%29.88 "Hg10 mi
1:58 PM56 °FPartly sunny.8 mph67%29.87 "Hg10 mi
12:58 PM55 °FPartly sunny.6 mph68%29.89 "Hg10 mi
11:58 AM51 °FPartly sunny.8 mph83%29.91 "Hg10 mi
10:58 AM50 °FCloudy.8 mph92%29.90 "Hg10 mi
Weather by CustomWeather, © 2015

See weather overviewHow to use our weather pages